Weather History for Mason, MI

Change the Weather History Date:

Tuesday, October 1, 2013

  Actual Average (KLAN) Record (KLAN)
Temperature  
Mean Temperature 62 °F 56 °F  
Max Temperature 71 °F 66 °F 89 °F (1897)
Min Temperature 52 °F 45 °F 27 °F (1960)
Degree Days  
Heating Degree Days 4 10  
Month to date heating degree days 10  
Since 1 July heating degree days 198  
Cooling Degree Days 0 1  
Month to date cooling degree days 1  
Year to date cooling degree days 619  
Growing Degree Days 12 (Base 50)    
Moisture  
Dew Point 57 °F    
Average Humidity 82    
Maximum Humidity 94    
Minimum Humidity 66    
Precipitation  
Precipitation 0.00 in 0.09 in 1.91 in (1911)
Month to date precipitation 0.09  
Year to date precipitation 24.68  
Snow  
Snow 0.00 in 0.00 in T in (2003)
Month to date snowfall 0.0  
Since 1 July snowfall 0.0  
Since 1 September snowfall 0.0  
Snow Depth -    
Sea Level Pressure  
Sea Level Pressure 29.97 in    
Wind  
Wind Speed 4 mph (SSW)    
Max Wind Speed 13 mph    
Max Gust Speed 18 mph    
Visibility 8 miles    
Events Fog    
T = Trace of Precipitation, MM = Missing Value Source: NWS Daily Summary

Daily Weather History Graph

Daily Weather History Graph

Search for Another Location

Airport:

Trip Planner

Search our weather history database for the weather conditions in past years. The results will help you decide how hot, cold, wet, or windy it might be!

Date:

Astronomy

Oct. 01, 2013 Rise Set
Actual Time 7:35 AM EDT 7:18 PM EDT
Civil Twilight 7:07 AM EDT 7:46 PM EDT
Nautical Twilight 6:34 AM EDT 8:19 PM EDT
Astronomical Twilight 6:01 AM EDT 8:52 PM EDT
Moon 4:04 AM EDT (10/1) 5:24 PM EDT (10/1)
Length of Visible Light 12h 39m
Length of Day
11h 43m
Waning Crescent, 12% of the Moon is Illuminated
Oct 1
Waning Crescent
Oct 4
New
Oct 11
First Quarter
Oct 18
Full
Oct 26
Last Quarter

Hourly Weather History & Observations

Time (EDT) Temp. Dew Point Humidity Pressure Visibility Wind Dir Wind Speed Gust Speed Precip Events Conditions
12:14 AM 54.3 °F 50.2 °F 86% 29.96 in 10.0 mi SSE 4.6 mph - N/A   Clear
12:34 AM 54.5 °F 50.2 °F 85% 29.96 in 10.0 mi SSE 4.6 mph - N/A   Clear
12:54 AM 54.1 °F 50.0 °F 86% 29.96 in 10.0 mi South 3.5 mph - N/A   Clear
1:13 AM 53.6 °F 49.3 °F 85% 29.95 in 10.0 mi SSE 3.5 mph - N/A   Clear
1:34 AM 53.2 °F 49.8 °F 88% 29.96 in 10.0 mi Calm Calm - N/A   Clear
1:54 AM 53.6 °F 49.6 °F 86% 29.96 in 10.0 mi SSE 3.5 mph - N/A   Clear
2:13 AM 52.7 °F 49.5 °F 89% 29.96 in 10.0 mi Calm Calm - N/A   Clear
2:34 AM 53.2 °F 49.8 °F 88% 29.96 in 10.0 mi Calm Calm - N/A   Clear
2:53 AM 53.6 °F 50.0 °F 88% 29.96 in 10.0 mi Calm Calm - N/A   Clear
3:14 AM 53.8 °F 50.0 °F 87% 29.96 in 10.0 mi Calm Calm - N/A   Clear
3:34 AM 52.7 °F 49.5 °F 89% 29.97 in 10.0 mi Calm Calm - N/A   Clear
3:53 AM 52.7 °F 49.3 °F 88% 29.97 in 10.0 mi Calm Calm - N/A   Clear
4:14 AM 53.8 °F 50.0 °F 87% 29.97 in 10.0 mi Calm Calm - N/A   Clear
4:34 AM 53.6 °F 50.4 °F 89% 29.97 in 10.0 mi Calm Calm - N/A   Clear
4:53 AM 55.6 °F 51.8 °F 87% 29.97 in 10.0 mi Calm Calm - N/A   Clear
5:14 AM 56.8 °F 52.9 °F 87% 29.97 in 10.0 mi Calm Calm - N/A   Clear
5:34 AM 57.4 °F 53.6 °F 87% 29.98 in 10.0 mi SW 4.6 mph - N/A   Clear
5:53 AM 57.7 °F 54.5 °F 89% 29.98 in 7.0 mi SW 4.6 mph - N/A   Clear
6:14 AM 57.2 °F 54.3 °F 90% 29.98 in 5.0 mi SW 3.5 mph - N/A   Clear
6:34 AM 57.4 °F 54.7 °F 91% 29.99 in 5.0 mi SW 3.5 mph - N/A   Clear
6:53 AM 57.4 °F 54.9 °F 91% 29.98 in 4.0 mi Calm Calm - N/A   Clear
7:14 AM 57.6 °F 55.2 °F 92% 29.99 in 4.0 mi Calm Calm - N/A   Mostly Cloudy
7:33 AM 58.8 °F 56.7 °F 93% 29.99 in 2.0 mi SW 6.9 mph - N/A   Overcast
7:54 AM 59.2 °F 57.0 °F 93% 29.99 in 0.8 mi SSW 4.6 mph - N/A   Overcast
8:13 AM 59.5 °F 57.6 °F 93% 30.00 in 0.5 mi SW 4.6 mph - N/A Fog Fog
8:34 AM 59.9 °F 58.1 °F 94% 30.00 in 0.8 mi SW 4.6 mph - N/A   Overcast
8:54 AM 60.4 °F 58.5 °F 93% 30.00 in 1.5 mi SW 3.5 mph - N/A   Overcast
9:13 AM 60.8 °F 59.0 °F 94% 30.01 in 2.0 mi SSW 4.6 mph - N/A   Overcast
9:34 AM 61.2 °F 59.0 °F 93% 30.00 in 3.0 mi SW 4.6 mph - N/A   Overcast
9:54 AM 61.7 °F 59.2 °F 91% 30.01 in 3.0 mi SW 5.8 mph - N/A   Overcast
10:13 AM 62.2 °F 59.2 °F 90% 30.00 in 4.0 mi SSW 5.8 mph - N/A   Overcast
10:34 AM 63.0 °F 59.4 °F 88% 30.01 in 5.0 mi SW 5.8 mph - N/A   Overcast
10:54 AM 63.9 °F 59.9 °F 87% 30.01 in 5.0 mi SSW 3.5 mph - N/A   Overcast
11:13 AM 64.9 °F 59.9 °F 84% 30.01 in 7.0 mi SSW 6.9 mph - N/A   Overcast
11:34 AM 66.2 °F 60.1 °F 81% 30.00 in 10.0 mi SSW 5.8 mph - N/A   Overcast
11:54 AM 66.7 °F 59.9 °F 79% 30.00 in 7.0 mi SW 8.1 mph - N/A   Overcast
12:13 PM 67.6 °F 59.9 °F 76% 30.00 in 10.0 mi SSW 6.9 mph - N/A   Overcast
12:34 PM 68.9 °F 59.9 °F 73% 29.99 in 10.0 mi SW 8.1 mph - N/A   Overcast
12:53 PM 69.6 °F 59.9 °F 71% 29.99 in 10.0 mi SW 10.4 mph 17.3 mph N/A   Mostly Cloudy
1:14 PM 70.3 °F 59.7 °F 69% 29.98 in 10.0 mi SW 11.5 mph - N/A   Overcast
1:34 PM 69.8 °F 59.2 °F 69% 29.98 in 10.0 mi SSW 10.4 mph 17.3 mph N/A   Overcast
1:53 PM 69.8 °F 59.2 °F 69% 29.97 in 10.0 mi WSW 12.7 mph 17.3 mph N/A   Overcast
2:14 PM 70.0 °F 59.2 °F 68% 29.97 in 10.0 mi SW 9.2 mph 16.1 mph N/A   Overcast
2:34 PM 70.5 °F 59.5 °F 68% 29.97 in 10.0 mi WSW 4.6 mph - N/A   Overcast
2:53 PM 70.7 °F 59.5 °F 68% 29.97 in 10.0 mi SW 8.1 mph - N/A   Overcast
3:14 PM 70.3 °F 59.4 °F 68% 29.96 in 10.0 mi SW 9.2 mph - N/A   Overcast
3:34 PM 71.1 °F 59.4 °F 66% 29.96 in 10.0 mi SSW 10.4 mph 16.1 mph N/A   Overcast
3:54 PM 71.1 °F 59.2 °F 66% 29.96 in 10.0 mi SW 8.1 mph 18.4 mph N/A   Overcast
4:14 PM 70.0 °F 59.4 °F 69% 29.95 in 10.0 mi SW 10.4 mph 18.4 mph N/A   Overcast
4:34 PM 69.8 °F 59.4 °F 69% 29.95 in 10.0 mi SW 8.1 mph 16.1 mph N/A   Overcast
4:54 PM 69.4 °F 59.4 °F 70% 29.95 in 10.0 mi SW 5.8 mph - N/A   Overcast
5:14 PM 69.4 °F 59.2 °F 70% 29.95 in 10.0 mi SSW 5.8 mph - N/A   Overcast
5:34 PM 69.8 °F 59.4 °F 69% 29.95 in 10.0 mi SSW 4.6 mph - N/A   Overcast
5:54 PM 69.8 °F 59.2 °F 69% 29.95 in 10.0 mi SW 8.1 mph - N/A   Overcast
6:14 PM 69.8 °F 59.4 °F 69% 29.94 in 10.0 mi SW 8.1 mph - N/A   Overcast
6:34 PM 68.5 °F 58.6 °F 71% 29.94 in 10.0 mi SSW 5.8 mph - N/A   Scattered Clouds
6:54 PM 68.0 °F 59.0 °F 73% 29.94 in 10.0 mi SW 8.1 mph - N/A   Scattered Clouds
7:14 PM 67.1 °F 59.0 °F 75% 29.94 in 10.0 mi SW 3.5 mph - N/A   Scattered Clouds
7:34 PM 65.8 °F 59.0 °F 79% 29.95 in 10.0 mi SSW 3.5 mph - N/A   Clear
7:54 PM 65.3 °F 58.8 °F 80% 29.95 in 10.0 mi Calm Calm - N/A   Clear
8:14 PM 64.2 °F 58.5 °F 82% 29.96 in 10.0 mi Calm Calm - N/A   Clear
8:34 PM 62.2 °F 57.6 °F 85% 29.95 in 10.0 mi Calm Calm - N/A   Clear
8:54 PM 61.7 °F 57.9 °F 87% 29.95 in 10.0 mi Calm Calm - N/A   Clear
9:14 PM 61.7 °F 57.7 °F 87% 29.95 in 10.0 mi Calm Calm - N/A   Clear
9:34 PM 62.1 °F 58.3 °F 87% 29.95 in 10.0 mi Calm Calm - N/A   Clear
9:54 PM 62.6 °F 58.3 °F 86% 29.95 in 10.0 mi Calm Calm - N/A   Clear
10:14 PM 63.0 °F 58.5 °F 85% 29.96 in 10.0 mi SSW 3.5 mph - N/A   Clear
10:34 PM 63.5 °F 58.5 °F 84% 29.96 in 10.0 mi SSW 4.6 mph - N/A   Clear
10:54 PM 64.4 °F 59.0 °F 83% 29.96 in 10.0 mi SW 6.9 mph - N/A   Clear
11:14 PM 64.4 °F 59.0 °F 83% 29.95 in 10.0 mi SW 5.8 mph - N/A   Clear
11:34 PM 64.4 °F 59.0 °F 83% 29.95 in 10.0 mi SW 5.8 mph - N/A   Clear
11:54 PM 64.6 °F 59.2 °F 83% 29.96 in 10.0 mi SW 6.9 mph - N/A   Clear